www.pogodaiklimat.ru

Погода и климат >> Архив погоды >> Малайзия >> Ipoh


ПОГОДА в Ipoh

  • Прогноз погоды в Ipoh
  • Монитор погоды в Ipoh
  • Климат города

АРХИВ ПОГОДЫ в Ipoh

Время (UTC), дата Ветер
(напр.,м/с)
 
Видим.   Явления Облачность Т
(С)
Тd
(С)
f
(%)
Тe
(С)
Тes
(С)
Комфортность P
(гПа)
Po
(гПа)
Тmin
(С)
Tmax
(С)
R
(мм)
R24
(мм)
S
(см)
06 11.10 Ю 2 12 км мгла 9/4 600 м
[Cu Sc Ac trans Ci sp]
+29.5 +24.7 75 +42 +49 опасность
перегрева
1010.0 1005.3
12 11.10 ЮВ 1 10 км мгла 9/3 900 м
[Sc Ac und Ci sp]
+25.9 +23.9 89 +36 +36 очень
душно
1010.0 1005.3 +30.4
18 11.10 З 1 10 км мгла 9/3 900 м
[Sc Ac trans Ci sp]
+24.9 +24.0 95 +34 +34 очень
душно
1011.8 1007.1
00 12.10 С 1 6000 м мгла 9/1 300 м
[Cu Sc Ac trans Ci sp]
+25.1 +24.2 95 +35 +35 очень
душно
1012.1 1007.4 +24.4
06 12.10 ЮЗ 3 6000 м слабый дождь 10/4 300 м
[Sc Ac trans Cs]
+25.0 +24.1 95 +34 +40 очень
душно
1012.0 1007.3 16
12 12.10 Ю 2 7000 м мгла 10/4 870 м
[Sc Ac trans Cs]
+25.5 +24.1 92 +35 +35 очень
душно
1012.4 1007.7 +27.3 0.0
18 12.10 штиль 0 10 км дымка 9/1 300 м
[Sc Ac lent Ci sp]
+24.0 +23.5 97 +32 +32 очень
душно
1012.9 1008.2
00 13.10 В 1 8000 м дымка 10/1 300 м
[Cu Sc Ac und Cs]
+24.3 +23.9 98 +33 +34 очень
душно
1012.9 1008.2 +23.6 16
03 13.10 В 1 8000 м дымка 10/1 300 м
[Cu Sc Ac und Cs]
+24.3 +23.9 98 +33 +41 очень
душно
1012.9 1008.2 +23.6 16
06 13.10 ЮЗ 4 13 км мгла 9/5 500 м
[Cb calv Ac trans Ci sp]
+30.9 +24.3 68 +43 +47 опасность
перегрева
1011.0 1006.3
12 13.10 В 2 10 км мгла 9/4 900 м
[Sc Ac trans Ci sp]
+25.4 +23.8 91 +35 +35 очень
душно
1011.5 1006.8 +31.7 0.0
18 13.10 штиль 0 8000 м гроза, ливневой дождь 10/5 150 м
[Cb cap Ac As Cs]
+22.8 +22.7 99 +31 +31 очень
душно
1013.6 1008.9 40
00 14.10 СЗ 1 8000 м в посл. час дождь 9/4 180 м
[Sc Ac As Cs]
+23.2 +22.9 98 +32 +33 очень
душно
1012.8 1008.1 +22.4 55
06 14.10 С 1 13 км мгла 9/5 600 м
[Cu Sc Ac trans Ci sp]
+29.9 +23.4 68 +40 +48 очень
душно
1011.4 1006.7
12 14.10 штиль 0 10 км слабый дождь 10/4 180 м
[Sc Ac trans Cs]
+24.9 +23.8 94 +34 +34 очень
душно
1011.7 1007.0 +31.3 1
18 14.10 В 2 8000 м слабый дождь 9/5 150 м
[Sc Ac trans Cs]
+23.9 +23.1 95 +32 +32 очень
душно
1012.4 1007.7 2
00 15.10 штиль 0 8000 м слабый дождь 9/5 150 м
[Cb cap Ac trans Cs]
+24.1 +23.6 97 +33 +33 очень
душно
1012.2 1007.5 +23.2 3
06 15.10 ЮЗ 1 13 км мгла 9/4 600 м
[Cu med, cong Ac trans Ci sp]
+31.8 +24.3 65 +44 +52 опасность
перегрева
1010.1 1005.4 0.2
12 15.10 ЮЗ 1 10 км в посл. час дождь {гроза, ливн. осадки} 9/3 900 м
[Sc Ac und Cs]
+25.2 +23.5 90 +34 +34 очень
душно
1011.6 1006.9 +32.2 0.2
18 15.10 СВ 1 10 км мгла 9/3 900 м
[Sc Ac trans Cs]
+24.5 +23.3 93 +33 +33 очень
душно
1011.8 1007.1
00 16.10 СВ 1 12 км мгла 9/5 180 м
[Cu Sc Ac trans Ci sp]
+24.7 +23.4 92 +33 +33 очень
душно
1012.7 1008.0 +23.9 0.4
06 16.10 Ю 2 13 км мгла 8/3 500 м
[Cb cap Ac und Ci sp]
+32.0 +23.6 61 +43 +52 опасность
перегрева
1010.3 1005.6
12 16.10 СЗ 1 6000 м слабый ливневой дождь, в посл. час гроза 9/5 210 м
[Cb cap Ac trans Cs]
+23.9 +23.5 98 +32 +32 очень
душно
1012.2 1007.5 +32.1 27
18 16.10 СВ 2 10 км дымка {дождь} 9/1 300 м
[St Ac und Cs]
+23.6 +22.9 96 +31 +31 очень
душно
1012.2 1007.5 2
00 17.10 СВ 1 6000 м дымка 9/5 300 м
[Sc Ac und Ci sp]
+23.5 +23.0 97 +31 +31 очень
душно
1013.9 1009.2 +23.0 29
06 17.10 ЮЗ 3 15 км мгла 9/4 600 м
[Cu hum Ac trans Ci sp]
+31.0 +23.6 65 +42 +48 опасность
перегрева
1010.9 1006.2
12 17.10 Ю 2 10 км слабый дождь 9/4 300 м
[Sc Ac trans Cs]
+27.4 +24.0 82 +38 +38 очень
душно
1010.0 1005.3 +32.1 0.0
18 17.10 СВ 2 9000 м мгла 9/3 270 м
[Sc Ac trans Cs]
+25.2 +24.0 93 +35 +35 очень
душно
1010.9 1006.2 0.8
00 18.10 СВ 2 10 км мгла 9/3 300 м
[Cu Sc Ac trans Cs]
+25.0 +23.3 90 +33 +34 очень
душно
1011.7 1007.0 +23.5 0.8

 

Местоположение метеостанции Ipoh (Малайзия): широта 4.57 долгота 101.10 высота над уровнем моря 39 м.

В архиве по умолчанию представлена погода в Ipoh за последнюю неделю. Архивные данные за месяц целиком и за предыдущие месяцы, начиная с января 2011 года, Вы можете получить, выбрав интересующий диапазон дат из раскрывающегося списка и нажав кнопку "Ввод!".


*Определитесь, кто Вы:
робот инопланетянин человек

Внимание! Время в таблицах - всемирное. Для получения местного времени необходимо прибавить поправку, которая в Ipoh равна 7 ч.

Смотрите также архив погоды в соседних городах и на ближайших метеорологических станциях:

Погода в Cameron Highlands (Малайзия) (32 км)
Погода в Sitiawan (Малайзия) (59 км)
Погода в Penang (Малайзия) (124 км)
Погода в Butterworth Air Base (Малайзия) (128 км)
Погода в Kuala Lumpur (Малайзия) (169 км)
Погода в Alor Star (Малайзия) (197 км)
Погода в Kuala Lumpur Int Airport (Малайзия) (216 км)
Погода в Yala Agromet (Таиланд) (218 км)
Погода в Narathiwat (Таиланд) (220 км)
Погода в Kota Bharu (Малайзия) (221 км)

Пояснения к столбцам:

Ветер - указаны скорость ветра в м/с - средняя за 10 мин, порывы в срок и между сроками (в фигурных скобках) и направление, откуда дует ветер: С - северный, СВ - северо-восточный, В - восточный, ЮВ - юго-восточный, Ю - южный, ЮЗ - юго-западный, З - западный, СЗ - северо-западный.
Видимость - горизонтальная дальность видимости в метрах или километрах. При видимости от 1 до 10 км при отсутствии осадков обычно наблюдается дымка, при ухудшении видимости до 1 км и менее - туман. В сухую погоду видимость может ухудшаться дымом, пылью или мглою.
Явления - указаны атмосферные явления, наблюдавшиеся в срок или в последний час перед сроком; фигурными скобками обозначены явления, наблюдавшиеся между сроками (за 1-3 часа до срока); квадратными скобками обозначены град или гололедные отложения с указанием их диаметра в мм.
Облачность - указаны через наклонную черту общая и нижняя облачность в баллах и высота нижней границы облаков в метрах; квадратными скобками обозначены формы облаков: Ci - перистые, Cs - перисто-слоистые, Cc - перисто-кучевые, Ac - высококучевые, As - высокослоистые, Sc - слоисто-кучевые, Ns - слоисто-дождевые, Cu - кучевые, Cb - кучево-дождевые. Подробнее классификацию облаков см. в Атласе облаков (PDF).
T - Температура воздуха - температура, измеренная на высоте 2 м над землей.
Td - Температура точки росы - температура, при понижении до которой содержащийся в воздухе водяной пар достигнет насыщения.
f - Относительная влажность воздуха - влажноcть воздуха, измеренная на высоте 2 м над землей.
Te - Эффективная температура - температура, которую ощущает одетый по сезону человек в тени. Характеристика душности погоды. При расчете учитывается влияние влажности воздуха и скорости ветра на теплоощущения человека.
Tes - Эффективная температура на солнце - температура, которую ощущает человек, с поправкой на солнечный нагрев. Характеристика знойности погоды. Зависит от высоты солнца над горизонтом, облачности и скорости ветра. Ночью, в пасмурную погоду, а также при ветре 12 м/с и более поправка равна нулю.
P - Атмосферное давление - приведенное к уровню моря атмосферное давление.
Po - Атмосферное давление - измеренное на уровне метеостанции атмосферное давление.
Tmin - Минимальная температура - минимум температуры воздуха на высоте 2 м над землей.
Tmax - Максимальная температура - максимум температуры воздуха на высоте 2 м над землей.
R - Количество осадков - Количество выпавших осадков за период времени, мм. При наведении курсора мыши на число - период времени, за который выпало указанное количество осадков.
R24 - Количество осадков - Количество выпавших осадков за 24 часа, мм.
S - Снежный покров - Высота снежного покрова, см. При наведении курсора мыши на число - состояние снежного покрова и степень покрытия местности в баллах.